Overview Statistics Trail Chart Weather Telemetry Raw packets
 

This is the latest recevied weather packets stored in our database for station/object K9MWD. If no packets are shown the sender has not sent any weather packets the latest 10 day(s).

<< 62 63 64 65 66 67 68 >>
Time Temp. Humidity Pressure Rain* Wind** Luminosity Snow
1788205878 37.22° C 36% 1015.6 hPa 0 mm - 801 W/m² -
1788205573 36.67° C 37% 1015.6 hPa 0 mm - 826 W/m² -
1788205268 36.11° C 38% 1015.7 hPa 0 mm - 170 W/m² -
1788204963 37.22° C 37% 1015.8 hPa 0 mm - 176 W/m² -
1788204663 37.22° C 36% 1015.8 hPa 0 mm - 878 W/m² -
1788204358 37.22° C 34% 1015.8 hPa 0 mm - 893 W/m² -
1788204054 37.78° C 35% 1016.1 hPa 0 mm - 601 W/m² -
1788203749 37.78° C 36% 1016 hPa 0 mm - 830 W/m² -
1788203445 37.78° C 35% 1016 hPa 0 mm - 965 W/m² -
1788203141 36.67° C 39% 1016.2 hPa 0 mm - 963 W/m² -
1788202839 37.78° C 36% 1016.3 hPa 0 mm - 213 W/m² -
1788202535 36.67° C 35% 1016.1 hPa 0 mm - 934 W/m² -
1788202231 36.67° C 37% 1016.4 hPa 0 mm - 968 W/m² -
1788201930 36.67° C 40% 1016.1 hPa 0 mm - 954 W/m² -
1788201626 36.67° C 40% 1016.3 hPa 0 mm - 959 W/m² -
1788201325 35.56° C 43% 1016.4 hPa 0 mm - 359 W/m² -
1788201025 35.56° C 42% 1016.5 hPa 0 mm - 199 W/m² -
1788200719 36.11° C 40% 1016.5 hPa 0 mm - 592 W/m² -
1788200426 36.11° C 42% 1016.7 hPa 0 mm - 882 W/m² -
1788200110 36.67° C 41% 1016.9 hPa 0 mm - 929 W/m² -
1788199805 35.56° C 41% 1016.7 hPa 0 mm - 885 W/m² -
1788199505 36.11° C 43% 1017 hPa 0 mm - 874 W/m² -
1788199205 36.11° C 42% 1017 hPa 0 mm - 873 W/m² -
1788198901 36.11° C 42% 1017 hPa 0 mm - 857 W/m² -
1788198596 35.56° C 45% 1017 hPa 0 mm - 848 W/m² -

* Rain latest hour (hover to see other rain measurements)
** Current wind speed in m/s (hover to see current wind gust speed)